Location: Recife
(8.0585°S, 34.8848°W)
Time: 04:47:09
(UTC-03:00)

Courier 1B - Pass Details

Date: 18 April 2026
Orbit: 962 x 1209 km, 28.3° (Epoch: 14 May)

Event Time Altitude Azimuth Distance (km) Brightness Sun altitude
Rises 16:04:12 0° 268° (W) 3,882 12.1 16.5°
Reaches altitude 10° 16:07:51 10° 284° (WNW) 2,874 13.0 15.6°
Maximum altitude 16:12:40 20° 329° (NNW) 2,182 10.2 14.5°
Drops below altitude 10° 16:17:20 10° 13° (NNE) 2,752 9.9 13.3°
Sets 16:20:45 0° 30° (NNE) 3,666 10.3 12.5°
